Regional Weather Roundup
Issued by NWS

Home | Current Version | Previous Version | Graphics & Text | Print | Product List | Glossary On
Versions: 1 2 3 4 5 6 7 8 9 10 11 12 13 14 15 16 17 18 19 20 21 22 23 24 25 26 27 28 29 30 31 32 33 34 35 36 37 38 39 40 41 42 43 44 45 46 47 48 49 50
000
ASUS43 KBIS 232002
RWRND

NORTH DAKOTA REGIONAL WEATHER ROUNDUP
NATIONAL WEATHER SERVICE BISMARCK ND
200 PM CST THU FEB 23 2017

NOTE: "FAIR" INDICATES FEW OR NO CLOUDS BELOW 12,000 FEET WITH NO
SIGNIFICANT WEATHER AND/OR OBSTRUCTIONS TO VISIBILITY.


NDZ001>003-009>011-017-232100-
NORTHWEST NORTH DAKOTA

CITY           SKY/WX    TMP DP  RH WIND       PRES   REMARKS
WILLISTON      CLOUDY    27  21  78 NE12      30.08R WCI  17
MINOT          FAIR      26  17  68 NW13      30.07F WCI  15
MINOT AFB      SUNNY     24  15  67 N12       30.07F WCI  13
$$

NDZ018>021-031>035-040>046-232100-
SOUTHWEST NORTH DAKOTA

CITY           SKY/WX    TMP DP  RH WIND       PRES   REMARKS
BISMARCK       CLOUDY    32  25  75 NE8       30.04R
DICKINSON      FOG       25  24  96 NE16      29.98R VSB 3/4 WCI  12
GARRISON         N/A     24  16  71 NE12      30.04F WCI  13
HETTINGER ARPT CLOUDY    32  25  75 NE10      29.97F
$$

NDZ004>008-012>016-024-026-027-054-232100-
NORTHEAST NORTH DAKOTA

CITY           SKY/WX    TMP DP  RH WIND       PRES   REMARKS
GRAND FORKS    CLOUDY    26  14  60 N14       30.07S WCI  14
GRND FRKS AFB  CLOUDY    26  18  72 NE16      30.07S WCI  13
DEVILS LAKE    CLOUDY    25  21  85 NE9       30.05S WCI  15
$$

NDZ022-023-025-028>030-036>039-047>053-232100-
SOUTHEAST NORTH DAKOTA

CITY           SKY/WX    TMP DP  RH WIND       PRES   REMARKS
FARGO          CLOUDY    31  22  69 N15       30.03R
JAMESTOWN      CLOUDY    30  23  75 NE10      30.00F
$$





USA.gov is the U.S. government's official web portal to all federal, state and local government web resources and services.